Proserpine, Australia

6:59 PM AEST on November 20, 2017 (GMT +1000)
Whitsunday

Weather History for YBPN - December, 2013

Change the Weather History Date:

Tuesday, December 17, 2013

  Actual Average Record
Temperature  
Mean Temperature 79 °F -  
Max Temperature 86 °F - - ()
Min Temperature 72 °F - - ()
Cooling Degree Days 14    
Growing Degree Days 29 (Base 50)    
Moisture  
Dew Point 68 °F    
Average Humidity 68    
Maximum Humidity 88    
Minimum Humidity 43    
Precipitation  
Precipitation 0.02 in - - ()
Sea Level Pressure  
Sea Level Pressure 29.94 in    
Wind  
Wind Speed 10 mph ()    
Max Wind Speed 20 mph    
Max Gust Speed -    
Visibility 6.2 miles    
Events      
T = Trace of Precipitation, MM = Missing Value Source: Averaged Metar Reports

Daily Weather History Graph

Daily Weather History Graph

Search for Another Location

Airport or City:

Trip Planner

Search our weather history database for the weather conditions in past years. The results will help you decide how hot, cold, wet, or windy it might be!

Date:

Astronomy

Dec. 17, 2013 Rise Set
Actual Time 5:20 AM AEST 6:43 PM AEST
Civil Twilight 4:56 AM AEST 7:07 PM AEST
Nautical Twilight 4:26 AM AEST 7:37 PM AEST
Astronomical Twilight 3:56 AM AEST 8:07 PM AEST
Moon 6:31 PM AEST (12/17) 5:03 AM AEST (12/17)
Length of Visible Light 14h 11m
Length of Day
13h 22m
Full, 100% of the Moon is Illuminated
Dec 17
Full
Dec 17
Full
Dec 25
Last Quarter
Jan 1
New
Jan 8
First Quarter

Hourly Weather History & Observations

Time (AEST) Temp. Heat Index Dew Point Humidity Pressure Visibility Wind Dir Wind Speed Gust Speed Precip Events Conditions
12:00 AM 74 °F - 69 °F 78% 29.95 in - South 8.1 mph - -  
12:00 AM 73.4 °F - 68.0 °F 83% 29.95 in 6.2 mi South 8.1 mph - N/A   Scattered Clouds
1:00 AM 75.2 °F - 68.0 °F 78% 29.92 in 6.2 mi SSE 9.2 mph - N/A   Mostly Cloudy
2:00 AM 75.2 °F - 68.0 °F 78% 29.92 in 6.2 mi SSE 9.2 mph - N/A   Mostly Cloudy
3:00 AM 74 °F - 69 °F 81% 29.91 in - SSE 8.1 mph - -   Overcast
3:00 AM 73.4 °F - 69.8 °F 88% 29.89 in 6.2 mi SSE 8.1 mph - N/A   Overcast
4:00 AM 73.4 °F - 69.8 °F 88% 29.89 in 6.2 mi South 6.9 mph - N/A   Mostly Cloudy
5:00 AM 73.4 °F - 69.8 °F 88% 29.92 in 6.2 mi South 6.9 mph - N/A   Scattered Clouds
6:00 AM 73 °F - 69 °F 85% 29.92 in - SSE 3.5 mph - -  
6:00 AM 73.4 °F - 69.8 °F 88% 29.92 in 6.2 mi SSE 3.5 mph - N/A   Scattered Clouds
7:00 AM 80.6 °F 83.9 °F 69.8 °F 70% 29.95 in 6.2 mi East 12.7 mph - N/A   Scattered Clouds
8:00 AM 80.6 °F 82.7 °F 66.2 °F 61% 29.95 in 6.2 mi ESE 16.1 mph - N/A   Mostly Cloudy
9:00 AM 82 °F - 66 °F 50% 29.98 in - East 17.3 mph - -  
9:00 AM 82.4 °F 85.4 °F 68.0 °F 62% 29.98 in 6.2 mi East 17.3 mph - N/A   Mostly Cloudy
10:00 AM 82.4 °F 84.6 °F 66.2 °F 58% 29.98 in 6.2 mi ESE 16.1 mph - N/A   Mostly Cloudy
11:00 AM 86.0 °F 87.3 °F 64.4 °F 48% 29.95 in 6.2 mi ESE 19.6 mph - N/A   Scattered Clouds
12:00 PM 86 °F - 67 °F 43% 29.95 in - East 17.3 mph - -  
12:00 PM 86.0 °F 88.2 °F 66.2 °F 51% 29.95 in 6.2 mi East 17.3 mph - N/A   Scattered Clouds
1:00 PM 84.2 °F 86.6 °F 66.2 °F 55% 29.92 in 6.2 mi East 17.3 mph - N/A   Scattered Clouds
2:00 PM 86.0 °F 88.2 °F 66.2 °F 51% 29.92 in 6.2 mi ESE 16.1 mph - N/A   Unknown
3:00 PM 85 °F - 68 °F 47% 29.90 in - ESE 15.0 mph - -  
3:00 PM 86.0 °F 89.4 °F 68.0 °F 55% 29.89 in 6.2 mi ESE 15.0 mph - N/A   Unknown
4:00 PM 84.2 °F 87.3 °F 68.0 °F 58% 29.89 in 6.2 mi ESE 15.0 mph - N/A   Scattered Clouds
5:00 PM 82.4 °F 85.4 °F 68.0 °F 62% 29.89 in 6.2 mi East 17.3 mph - N/A   Scattered Clouds
6:00 PM 80 °F - 67 °F 55% 29.92 in - ESE 16.1 mph - -  
6:00 PM 80.6 °F 82.7 °F 66.2 °F 61% 29.92 in 6.2 mi ESE 16.1 mph - N/A   Scattered Clouds
7:00 PM 77.0 °F - 66.2 °F 69% 29.95 in 6.2 mi ESE 9.2 mph - N/A   Unknown
8:00 PM 77.0 °F - 68.0 °F 74% 29.95 in 6.2 mi ESE 8.1 mph - N/A   Mostly Cloudy
9:00 PM 77 °F - 68 °F 67% 29.97 in - ESE 6.9 mph - -  
9:00 PM 77.0 °F - 68.0 °F 74% 29.98 in 6.2 mi ESE 6.9 mph - N/A   Mostly Cloudy
10:00 PM 75.2 °F - 68.0 °F 78% 29.98 in 6.2 mi SE 9.2 mph - N/A   Unknown
11:00 PM 75.2 °F - 68.0 °F 78% 29.98 in 6.2 mi South 8.1 mph - N/A   Scattered Clouds